"Period start","avg(HW err(1)/warn(2) (#))","avg(Visibility (m))","avg(Weather code (#))","avg(Precip intensity (mm/h))","min(HW err(1)/warn(2) (#))","max(HW err(1)/warn(2) (#))","std(HW err(1)/warn(2) (#))","med(HW err(1)/warn(2) (#))","min(Visibility (m))","max(Visibility (m))","std(Visibility (m))","med(Visibility (m))","min(Weather code (#))","max(Weather code (#))","std(Weather code (#))","med(Weather code (#))","min(Precip intensity (mm/h))","max(Precip intensity (mm/h))","std(Precip intensity (mm/h))","med(Precip intensity (mm/h))"
2017-05-14 00:00:00,2,39153,0,0.00,2,2,0,2,22132,50000,9227,38520,0,0,0,0,0.00,0.00,0.00,0.00
2017-05-14 00:10:00,2,38668,0,0.00,2,2,0,2,21684,50000,9758,37310,0,0,0,0,0.00,0.00,0.00,0.00
2017-05-14 00:20:00,2,42107,0,0.00,2,2,0,2,28255,50000,7386,42851,0,0,0,0,0.00,0.00,0.00,0.00
2017-05-14 00:30:00,2,40166,0,0.00,2,2,0,2,31595,50000,5569,41232,0,0,0,0,0.00,0.00,0.00,0.00
2017-05-14 00:40:00,2,19336,36,0.03,2,2,0,2,5894,31856,8879,20256,0,71,32,40,0.00,0.20,0.07,0.00
2017-05-14 00:50:00,2,35806,7,0.00,2,2,0,2,3470,47874,12863,39228,0,71,21,0,0.00,0.00,0.00,0.00
2017-05-14 01:00:00,2,39042,7,0.00,2,2,0,2,11700,50000,10881,40635,0,71,21,0,0.00,0.00,0.00,0.00
2017-05-14 01:10:00,2,17758,71,0.07,2,2,0,2,5113,34033,8191,16599,71,71,0,71,0.00,0.30,0.11,0.00
2017-05-14 01:20:00,2,18444,71,0.12,2,2,0,2,4463,37943,8906,16980,71,71,0,71,0.00,0.55,0.17,0.05
2017-05-14 01:30:00,2,8359,71,0.40,2,2,0,2,3513,18902,4462,7736,71,71,0,71,0.10,0.70,0.22,0.50
2017-05-14 01:40:00,2,11197,71,0.35,2,2,0,2,5973,19238,4701,8780,71,71,0,71,0.00,1.05,0.30,0.30
2017-05-14 01:50:00,2,13633,71,0.30,2,2,0,2,8409,21571,3654,12766,71,71,0,71,0.05,0.70,0.22,0.17
2017-05-14 02:00:00,2,14187,71,0.23,2,2,0,2,9892,18905,3117,13412,71,71,0,71,0.00,0.50,0.13,0.23
2017-05-14 02:10:00,2,13834,71,0.35,2,2,0,2,9535,19360,3023,13128,71,71,0,71,0.05,0.75,0.22,0.28
2017-05-14 02:20:00,2,16364,71,0.18,2,2,0,2,9597,23117,3417,16092,71,71,0,71,0.05,0.35,0.10,0.17
2017-05-14 02:30:00,2,21498,71,0.10,2,2,0,2,10054,38540,8585,20262,71,71,0,71,0.00,0.30,0.08,0.08
2017-05-14 02:40:00,2,10172,71,0.45,2,2,0,2,6957,12635,1808,10650,71,71,0,71,0.10,1.20,0.32,0.38
2017-05-14 02:50:00,2,6288,71,0.94,2,2,0,2,3956,8726,1414,6238,71,71,0,71,0.10,2.15,0.65,0.75
2017-05-14 03:00:00,2,9519,71,0.67,2,2,0,2,5144,17439,3920,8604,71,71,0,71,0.05,2.40,0.66,0.57
2017-05-14 03:10:00,2,11620,71,0.45,2,2,0,2,7026,19135,3429,11210,71,71,0,71,0.05,1.45,0.38,0.38
2017-05-14 03:20:00,2,7369,71,0.86,2,2,0,2,4200,14454,3270,5990,71,71,0,71,0.15,1.60,0.43,0.88
2017-05-14 03:30:00,2,5817,71,1.30,2,2,0,2,3498,9557,2099,4670,71,71,0,71,0.20,2.30,0.77,1.33
2017-05-14 03:40:00,2,8269,71,0.59,2,2,0,2,4992,12116,1828,8114,71,71,0,71,0.15,1.10,0.32,0.60
2017-05-14 03:50:00,2,6954,71,0.89,2,2,0,2,4892,10918,1668,6834,71,71,0,71,0.35,1.30,0.29,0.80
2017-05-14 04:00:00,2,15298,71,0.39,2,2,0,2,7821,25326,6267,14363,71,71,0,71,0.00,1.45,0.46,0.17
2017-05-14 04:10:00,2,13818,71,0.33,2,2,0,2,6402,22937,5427,14599,71,71,0,71,0.00,1.80,0.52,0.10
2017-05-14 04:20:00,2,5714,71,1.56,2,2,0,2,3776,7139,1018,6035,71,71,0,71,1.00,2.90,0.67,1.33
2017-05-14 04:30:00,2,9202,71,0.79,2,2,0,2,6448,12150,1660,9650,71,71,0,71,0.45,1.35,0.29,0.65
2017-05-14 04:40:00,2,11928,71,0.47,2,2,0,2,6837,16059,2840,10730,71,71,0,71,0.05,1.05,0.37,0.35
2017-05-14 04:50:00,2,13175,71,0.42,2,2,0,2,7274,29916,6304,11161,71,71,0,71,0.00,1.40,0.44,0.30
2017-05-14 05:00:00,2,12313,71,0.45,2,2,0,2,7038,17614,2900,12123,71,71,0,71,0.05,0.90,0.28,0.45
2017-05-14 05:10:00,2,18568,71,0.08,2,2,0,2,12455,28229,4840,18651,71,71,0,71,0.00,0.15,0.06,0.08
2017-05-14 05:20:00,2,14755,71,0.29,2,2,0,2,8267,21109,4312,15518,71,71,0,71,0.00,0.80,0.28,0.20
2017-05-14 05:30:00,2,14400,71,0.11,2,2,0,2,10994,16843,1698,14508,71,71,0,71,0.00,0.30,0.08,0.10
2017-05-14 05:40:00,2,13689,71,0.17,2,2,0,2,9835,20891,2973,12888,71,71,0,71,0.05,0.65,0.17,0.15
2017-05-14 05:50:00,2,19700,71,0.12,2,2,0,2,12945,30947,5333,17724,71,71,0,71,0.00,0.50,0.15,0.05
2017-05-14 06:00:00,2,24208,72,0.02,2,2,0,2,15791,35438,5720,25103,71,77,2,71,0.00,0.05,0.02,0.00
2017-05-14 06:10:00,2,17918,72,0.14,2,2,0,2,11944,26131,3844,18100,71,77,2,71,0.00,0.50,0.17,0.05
2017-05-14 06:20:00,2,17033,71,0.17,2,2,0,2,13218,24599,3448,16054,71,71,0,71,0.00,0.60,0.23,0.03
2017-05-14 06:30:00,2,17917,71,0.17,2,2,0,2,13207,25786,3931,16952,71,71,0,71,0.00,0.45,0.13,0.15
2017-05-14 06:40:00,2,12974,71,0.39,2,2,0,2,8618,18541,2538,12884,71,71,0,71,0.05,1.00,0.26,0.38
2017-05-14 06:50:00,2,9997,71,0.76,2,2,0,2,4830,17061,3618,9384,71,71,0,71,0.05,2.35,0.65,0.65
2017-05-14 07:00:00,2,7299,71,1.05,2,2,0,2,5393,10372,1447,6860,71,71,0,71,0.25,1.65,0.44,1.10
2017-05-14 07:10:00,2,6678,71,0.85,2,2,0,2,5154,9477,1476,6522,71,71,0,71,0.40,1.35,0.37,0.77
2017-05-14 07:20:00,2,8147,71,0.80,2,2,0,2,5583,12392,2110,8150,71,71,0,71,0.35,1.45,0.36,0.73
2017-05-14 07:30:00,2,7591,71,0.93,2,2,0,2,4602,10689,1916,7542,71,71,0,71,0.45,1.70,0.38,0.85
2017-05-14 07:40:00,2,8861,71,0.74,2,2,0,2,6316,11319,1621,9258,71,71,0,71,0.10,1.45,0.44,0.80
2017-05-14 07:50:00,2,12250,71,0.28,2,2,0,2,9027,14598,1578,12366,71,71,0,71,0.00,0.55,0.15,0.28
2017-05-14 08:00:00,2,8872,71,0.72,2,2,0,2,5586,14417,2601,8259,71,71,0,71,0.35,1.20,0.29,0.62
2017-05-14 08:10:00,2,2411,71,3.69,2,2,0,2,1699,3760,681,2084,71,71,0,71,1.90,5.45,1.31,4.05
2017-05-14 08:20:00,2,1718,71,4.79,2,2,0,2,1518,1980,151,1678,71,71,0,71,2.85,7.15,1.14,4.92
2017-05-14 08:30:00,2,1708,71,3.83,2,2,0,2,1421,2213,265,1624,71,71,0,71,2.75,5.25,0.68,3.70
2017-05-14 08:40:00,2,1546,71,3.42,2,2,0,2,1364,1808,126,1528,71,71,0,71,2.25,5.05,0.73,3.42
2017-05-14 08:50:00,2,2513,71,2.08,2,2,0,2,1792,3954,667,2244,71,71,0,71,1.00,3.05,0.55,2.17
2017-05-14 09:00:00,2,4788,71,1.09,2,2,0,2,2967,6643,1419,4553,71,71,0,71,0.30,3.10,0.75,0.90
2017-05-14 09:10:00,2,10634,71,0.26,2,2,0,2,6537,15553,2970,10444,71,71,0,71,0.00,0.90,0.24,0.20
2017-05-14 09:20:00,2,9691,71,0.49,2,2,0,2,6996,10952,1293,10036,71,71,0,71,0.25,1.30,0.29,0.35
2017-05-14 09:30:00,2,8541,71,0.61,2,2,0,2,5181,11839,2300,9239,71,71,0,71,0.15,1.10,0.34,0.55
2017-05-14 09:40:00,2,6095,71,1.09,2,2,0,2,4230,8159,1233,6620,71,71,0,71,0.35,1.80,0.45,1.00
2017-05-14 09:50:00,2,4475,71,2.53,2,2,0,2,2223,6088,1465,5200,71,71,0,71,1.20,4.15,1.06,2.05
2017-05-14 10:00:00,2,1892,71,5.76,2,2,0,2,1622,2603,290,1818,71,71,0,71,3.60,7.35,1.15,5.75
2017-05-14 10:10:00,2,2291,71,3.52,2,2,0,2,1894,2627,208,2326,71,71,0,71,2.45,4.50,0.61,3.33
2017-05-14 10:20:00,2,3494,71,1.71,2,2,0,2,3041,3954,317,3566,71,71,0,71,1.35,2.35,0.28,1.75
2017-05-14 10:30:00,2,3385,71,1.56,2,2,0,2,2909,4402,419,3332,71,71,0,71,1.00,2.00,0.30,1.62
2017-05-14 10:40:00,2,2982,71,1.44,2,2,0,2,2557,3306,227,2944,71,71,0,71,1.25,1.70,0.15,1.43
2017-05-14 10:50:00,2,2765,71,1.30,2,2,0,2,2519,3007,181,2786,71,71,0,71,0.80,2.00,0.33,1.28
2017-05-14 11:00:00,2,2599,71,1.35,2,2,0,2,2312,2852,196,2584,71,71,0,71,0.95,1.85,0.29,1.27
2017-05-14 11:10:00,2,2532,71,1.48,2,2,0,2,2349,2755,112,2524,71,71,0,71,1.05,2.00,0.32,1.45
2017-05-14 11:20:00,2,2553,71,1.27,2,2,0,2,2300,3129,237,2484,71,71,0,71,0.90,1.80,0.27,1.25
2017-05-14 11:30:00,2,2240,71,2.77,2,2,0,2,1885,2727,227,2247,71,71,0,71,1.00,4.45,1.05,2.67
2017-05-14 11:40:00,2,2073,71,4.00,2,2,0,2,1503,2422,282,2180,71,71,0,71,3.10,6.70,1.06,3.62
2017-05-14 11:50:00,2,1591,71,6.63,2,2,0,2,1349,2013,188,1544,71,71,0,71,4.50,8.95,1.42,6.70
2017-05-14 12:00:00,2,1858,71,5.37,2,2,0,2,1286,2246,308,1933,71,71,0,71,3.05,8.00,1.57,5.75
2017-05-14 12:10:00,2,1684,71,4.13,2,2,0,2,1520,1856,119,1701,71,71,0,71,2.65,5.50,0.84,3.98
2017-05-14 12:20:00,2,1809,71,2.50,2,2,0,2,1555,1918,124,1860,71,71,0,71,1.55,3.65,0.66,2.53
2017-05-14 12:30:00,2,1339,71,5.38,2,2,0,2,1219,1449,76,1326,71,71,0,71,3.25,6.95,1.13,5.38
2017-05-14 12:40:00,2,1388,71,4.67,2,2,0,2,1178,1600,137,1382,71,71,0,71,3.30,7.85,1.42,4.15
2017-05-14 12:50:00,2,1458,71,3.71,2,2,0,2,1305,1623,101,1422,71,71,0,71,2.85,5.15,0.64,3.58
2017-05-14 13:00:00,2,1506,71,3.11,2,2,0,2,1351,1669,123,1472,71,71,0,71,2.15,4.45,0.59,3.10
2017-05-14 13:10:00,2,1392,71,4.92,2,2,0,2,1249,1527,89,1396,71,71,0,71,2.85,7.65,1.42,4.97
2017-05-14 13:20:00,2,1801,71,4.13,2,2,0,2,1428,2078,214,1863,71,71,0,71,2.60,6.75,1.19,3.90
2017-05-14 13:30:00,2,1939,71,3.09,2,2,0,2,1305,2168,266,2051,71,71,0,71,1.80,5.60,0.96,2.95
2017-05-14 13:40:00,2,1536,71,3.20,2,2,0,2,1314,1942,225,1426,71,71,0,71,1.85,5.80,1.22,3.08
2017-05-14 13:50:00,2,1760,71,2.10,2,2,0,2,1452,2031,184,1748,71,71,0,71,1.40,3.00,0.49,2.03
2017-05-14 14:00:00,2,1475,71,2.56,2,2,0,2,1149,1661,144,1500,71,71,0,71,1.80,3.30,0.49,2.42
2017-05-14 14:10:00,2,930,71,4.42,2,2,0,2,772,1142,136,886,71,72,0,71,2.65,5.55,0.88,4.55
2017-05-14 14:20:00,2,986,72,4.43,2,2,0,2,915,1063,49,990,71,72,0,72,3.55,5.35,0.53,4.53
2017-05-14 14:30:00,2,1244,71,4.14,2,2,0,2,1060,1550,149,1214,71,71,0,71,3.05,5.10,0.54,4.12
2017-05-14 14:40:00,2,1310,71,3.71,2,2,0,2,1200,1531,98,1288,71,71,0,71,2.70,5.00,0.67,3.75
2017-05-14 14:50:00,2,1324,71,3.19,2,2,0,2,982,1625,226,1344,71,71,0,71,2.20,4.25,0.57,3.35
2017-05-14 15:00:00,2,1311,71,2.09,2,2,0,2,1189,1450,82,1294,71,71,0,71,1.55,3.05,0.41,2.00
2017-05-14 15:10:00,2,1477,71,1.49,2,2,0,2,1290,1822,175,1420,71,71,0,71,1.05,1.85,0.22,1.55
2017-05-14 15:20:00,2,1747,71,2.09,2,2,0,2,1538,1946,109,1762,71,71,0,71,1.40,2.80,0.45,2.17
2017-05-14 15:30:00,2,1426,71,3.17,2,2,0,2,1213,1563,107,1440,71,71,0,71,2.65,4.30,0.47,3.05
2017-05-14 15:40:00,2,1106,71,4.59,2,2,0,2,931,1375,165,1038,71,71,0,71,3.05,6.10,0.90,4.60
2017-05-14 15:50:00,2,964,71,4.30,2,2,0,2,836,1172,90,952,71,72,0,71,2.85,5.70,0.91,4.42
2017-05-14 16:00:00,2,1431,71,1.88,2,2,0,2,1129,1734,203,1381,71,71,0,71,1.30,2.65,0.44,1.85
2017-05-14 16:10:00,2,1800,71,1.44,2,2,0,2,1682,1994,95,1822,71,71,0,71,1.20,1.75,0.13,1.43
2017-05-14 16:20:00,2,2049,71,1.69,2,2,0,2,1608,2520,256,2018,71,71,0,71,1.00,2.80,0.56,1.60
2017-05-14 16:30:00,2,1744,71,3.25,2,2,0,2,1564,1955,115,1725,71,71,0,71,2.10,4.90,0.88,3.30
2017-05-14 16:40:00,2,2003,71,2.58,2,2,0,2,1664,2426,237,1965,71,71,0,71,1.40,4.05,0.99,2.12
2017-05-14 16:50:00,2,2504,71,1.60,2,2,0,2,2181,3040,255,2432,71,71,0,71,1.00,2.25,0.36,1.55
2017-05-14 17:00:00,2,2630,71,1.79,2,2,0,2,2238,3150,250,2661,71,71,0,71,0.65,2.70,0.64,1.78
2017-05-14 17:10:00,2,2517,71,1.27,2,2,0,2,2262,2742,151,2502,71,71,0,71,1.00,1.80,0.21,1.25
2017-05-14 17:20:00,2,3042,71,1.02,2,2,0,2,2333,3641,393,3032,71,71,0,71,0.55,1.75,0.37,1.08
2017-05-14 17:30:00,2,2106,71,1.43,2,2,0,2,1781,2541,199,2117,71,71,0,71,0.80,2.10,0.38,1.38
2017-05-14 17:40:00,2,1426,71,1.64,2,2,0,2,1215,1698,123,1438,71,71,0,71,1.05,2.25,0.34,1.60
2017-05-14 17:50:00,2,1801,71,1.41,2,2,0,2,1268,2112,253,1866,71,71,0,71,0.75,1.80,0.28,1.40
2017-05-14 18:00:00,2,1936,71,1.47,2,2,0,2,1551,2431,301,1962,71,71,0,71,0.90,2.25,0.47,1.43
2017-05-14 18:10:00,2,1495,71,2.76,2,2,0,2,1045,1776,198,1511,71,71,0,71,1.90,5.15,0.91,2.60
2017-05-14 18:20:00,2,1728,71,2.33,2,2,0,2,1403,2081,170,1741,71,71,0,71,1.10,4.00,0.71,2.25
2017-05-14 18:30:00,2,2450,71,0.93,2,2,0,2,1475,3179,543,2513,71,71,0,71,0.35,2.45,0.64,0.68
2017-05-14 18:40:00,2,2626,71,0.53,2,2,0,2,2300,3041,250,2674,71,71,0,71,0.25,0.80,0.15,0.55
2017-05-14 18:50:00,2,3492,71,0.30,2,2,0,2,2879,4051,337,3470,71,71,0,71,0.15,0.65,0.14,0.25
2017-05-14 19:00:00,2,3204,71,0.54,2,2,0,2,2384,4055,527,3044,71,71,0,71,0.25,1.10,0.22,0.50
2017-05-14 19:10:00,2,2601,71,1.01,2,2,0,2,2068,3214,375,2741,71,71,0,71,0.50,2.15,0.45,0.88
2017-05-14 19:20:00,2,2965,71,0.82,2,2,0,2,2069,3428,374,2982,71,71,0,71,0.15,1.45,0.37,0.75
2017-05-14 19:30:00,2,3592,71,0.49,2,2,0,2,2892,4184,350,3669,71,71,0,71,0.25,0.90,0.19,0.42
2017-05-14 19:40:00,2,3939,71,0.30,2,2,0,2,3338,4795,379,3941,71,71,0,71,0.15,0.60,0.13,0.25
2017-05-14 19:50:00,2,3846,71,0.43,2,2,0,2,2917,4467,482,3814,71,71,0,71,0.15,1.25,0.31,0.40
2017-05-14 20:00:00,2,2703,71,0.76,2,2,0,2,2000,3045,326,2736,71,71,0,71,0.50,1.35,0.25,0.73
2017-05-14 20:10:00,2,2231,71,0.86,2,2,0,2,1726,2606,244,2235,71,71,0,71,0.60,1.15,0.18,0.85
2017-05-14 20:20:00,2,1794,71,1.38,2,2,0,2,1526,2475,310,1642,71,71,0,71,0.75,1.80,0.33,1.43
2017-05-14 20:30:00,2,1772,71,1.35,2,2,0,2,1402,2829,409,1614,71,71,0,71,0.55,2.20,0.39,1.33
2017-05-14 20:40:00,2,1657,71,1.07,2,2,0,2,1329,1903,171,1672,71,71,0,71,0.70,1.45,0.21,1.05
2017-05-14 20:50:00,2,1612,71,0.97,2,2,0,2,1336,2029,210,1629,71,71,0,71,0.50,1.50,0.27,0.92
2017-05-14 21:00:00,2,1427,71,1.34,2,2,0,2,1175,1694,155,1412,71,71,0,71,0.65,2.20,0.46,1.48
2017-05-14 21:10:00,2,1090,71,2.31,2,2,0,2,914,1299,104,1079,71,71,0,71,1.20,3.85,0.71,2.23
2017-05-14 21:20:00,2,1024,71,2.40,2,2,0,2,877,1180,103,991,71,71,0,71,1.65,3.25,0.49,2.42
2017-05-14 21:30:00,2,1430,71,1.44,2,2,0,2,1028,1780,233,1462,71,71,0,71,0.50,2.85,0.79,1.18
2017-05-14 21:40:00,2,1797,71,0.53,2,2,0,2,1527,1994,155,1856,71,71,0,71,0.30,0.85,0.18,0.55
2017-05-14 21:50:00,2,2171,75,0.26,2,2,0,2,1840,2612,261,2178,71,77,3,77,0.15,0.40,0.08,0.20
2017-05-14 22:00:00,2,1811,71,0.75,2,2,0,2,1419,2257,280,1788,71,71,0,71,0.35,1.75,0.37,0.62
2017-05-14 22:10:00,2,1586,71,1.09,2,2,0,2,1291,1883,184,1596,71,71,0,71,0.65,1.85,0.35,1.02
2017-05-14 22:20:00,2,1710,71,0.81,2,2,0,2,1507,1912,130,1714,71,71,0,71,0.50,1.10,0.17,0.75
2017-05-14 22:30:00,2,1991,71,0.55,2,2,0,2,1747,2461,195,1972,71,71,0,71,0.40,0.75,0.10,0.55
2017-05-14 22:40:00,2,2158,71,0.40,2,2,0,2,1936,2508,184,2196,71,71,0,71,0.30,0.55,0.08,0.40
2017-05-14 22:50:00,2,2454,71,0.40,2,2,0,2,2070,2802,214,2430,71,71,0,71,0.25,0.60,0.12,0.40
2017-05-14 23:00:00,2,2609,71,0.44,2,2,0,2,2130,3089,254,2552,71,71,0,71,0.25,0.65,0.13,0.42
2017-05-14 23:10:00,2,2617,71,0.38,2,2,0,2,2383,2828,131,2646,71,71,0,71,0.25,0.55,0.10,0.35
2017-05-14 23:20:00,2,2552,71,0.42,2,2,0,2,2166,3417,346,2516,71,71,0,71,0.20,0.70,0.14,0.40
2017-05-14 23:30:00,2,2738,71,0.40,2,2,0,2,2252,3262,333,2714,71,71,0,71,0.25,0.75,0.15,0.35
2017-05-14 23:40:00,2,3069,71,0.29,2,2,0,2,2678,3766,334,3000,71,71,0,71,0.10,0.50,0.13,0.28
2017-05-14 23:50:00,2,2796,71,0.34,2,2,0,2,2425,3144,232,2830,71,71,0,71,0.10,0.60,0.14,0.30
